Total_Precipitation_Accumulation
0.15 0.17 0.24 0.44 0.50 0.42 0.43 0.42 0.49 0.45 0.50 0.58 0.63 0.66 0.68 0.68 0.60 0.51 0.46 0.43 0.39 0.37 0.38 0.40 0.45 0.52 0.62 0.91 1.12 1.14 1.13 1.01 0.90 0.82 0.75 0.70 0.68 0.69 0.63 0.57 0.56 0.56 0.66 0.74
0.14 0.13 0.15 0.18 0.14 0.14 0.17 0.22 0.30 0.35 0.46 0.50 0.52 0.54 0.60 0.59 0.43 0.38 0.34 0.33 0.34 0.31 0.28 0.26 0.27 0.34 0.42 0.60 0.78 0.88 0.92 0.88 0.75 0.73 0.66 0.59 0.62 0.70 0.69 0.57 0.52 0.52 0.57 0.55
0.19 0.15 0.16 0.14 0.09 0.14 0.17 0.20 0.25 0.37 0.49 0.54 0.56 0.63 0.94 0.94 0.62 0.43 0.39 0.34 0.36 0.35 0.33 0.30 0.28 0.29 0.31 0.37 0.48 0.56 0.61 0.63 0.54 0.54 0.64 0.67 0.69 0.67 0.59 0.49 0.50 0.51 0.46 0.41
0.24 0.23 0.27 0.15 0.08 0.13 0.16 0.17 0.19 0.22 0.25 0.30 0.43 0.57 0.73 0.80 0.66 0.47 0.43 0.36 0.34 0.31 0.30 0.28 0.25 0.26 0.28 0.30 0.32 0.34 0.34 0.33 0.30 0.39 0.53 0.56 0.53 0.49 0.44 0.44 0.47 0.52 0.45 0.41
0.28 0.37 0.30 0.11 0.07 0.09 0.11 0.10 0.09 0.12 0.12 0.13 0.18 0.20 0.21 0.25 0.28 0.25 0.21 0.18 0.15 0.14 0.14 0.13 0.14 0.16 0.16 0.13 0.16 0.16 0.14 0.15 0.19 0.21 0.25 0.27 0.25 0.27 0.33 0.39 0.43 0.39 0.43 0.56
0.30 0.36 0.27 0.11 0.06 0.06 0.10 0.15 0.09 0.08 0.07 0.06 0.10 0.15 0.14 0.19 0.13 0.07 0.06 0.06 0.07 0.09 0.10 0.10 0.11 0.13 0.12 0.12 0.12 0.12 0.13 0.14 0.16 0.18 0.20 0.20 0.21 0.23 0.25 0.28 0.34 0.37 0.41 0.54
0.25 0.34 0.19 0.08 0.06 0.08 0.16 0.16 0.07 0.05 0.04 0.04 0.05 0.07 0.07 0.13 0.11 0.04 0.06 0.07 0.08 0.09 0.09 0.10 0.10 0.12 0.11 0.10 0.12 0.16 0.17 0.16 0.15 0.16 0.20 0.25 0.28 0.27 0.26 0.25 0.27 0.31 0.36 0.41
0.21 0.27 0.21 0.08 0.08 0.13 0.13 0.07 0.06 0.06 0.05 0.04 0.05 0.05 0.05 0.07 0.09 0.05 0.06 0.07 0.09 0.10 0.11 0.13 0.13 0.13 0.13 0.12 0.14 0.18 0.18 0.17 0.17 0.18 0.20 0.24 0.33 0.33 0.29 0.28 0.26 0.27 0.32 0.40
0.21 0.20 0.13 0.09 0.10 0.12 0.12 0.09 0.07 0.08 0.07 0.05 0.04 0.04 0.04 0.06 0.11 0.07 0.06 0.06 0.09 0.11 0.13 0.14 0.15 0.16 0.16 0.17 0.17 0.18 0.18 0.19 0.20 0.21 0.23 0.24 0.27 0.30 0.31 0.29 0.30 0.31 0.33 0.38
0.16 0.12 0.09 0.10 0.11 0.10 0.09 0.09 0.08 0.09 0.10 0.08 0.07 0.06 0.06 0.06 0.10 0.09 0.07 0.06 0.07 0.08 0.12 0.16 0.19 0.19 0.20 0.22 0.23 0.22 0.21 0.22 0.22 0.23 0.25 0.27 0.29 0.31 0.34 0.36 0.36 0.35 0.36 0.41
0.14 0.10 0.08 0.09 0.11 0.12 0.10 0.08 0.08 0.09 0.11 0.11 0.12 0.11 0.08 0.07 0.08 0.08 0.11 0.10 0.08 0.08 0.09 0.13 0.18 0.20 0.23 0.23 0.24 0.25 0.25 0.25 0.26 0.26 0.27 0.31 0.34 0.36 0.35 0.36 0.38 0.36 0.38 0.42
0.13 0.09 0.09 0.09 0.09 0.11 0.13 0.11 0.09 0.08 0.09 0.10 0.11 0.11 0.09 0.09 0.08 0.08 0.08 0.09 0.09 0.10 0.10 0.10 0.13 0.14 0.17 0.18 0.20 0.22 0.26 0.27 0.25 0.28 0.32 0.33 0.34 0.34 0.35 0.36 0.39 0.37 0.36 0.38
0.07 0.07 0.07 0.07 0.08 0.09 0.12 0.11 0.09 0.08 0.09 0.11 0.12 0.12 0.12 0.12 0.12 0.11 0.10 0.09 0.11 0.11 0.11 0.11 0.10 0.12 0.13 0.15 0.19 0.22 0.22 0.23 0.23 0.25 0.26 0.29 0.32 0.33 0.36 0.37 0.37 0.36 0.36 0.37
0.06 0.06 0.07 0.07 0.07 0.07 0.09 0.10 0.08 0.08 0.09 0.10 0.12 0.14 0.16 0.16 0.15 0.14 0.13 0.11 0.13 0.11 0.13 0.11 0.11 0.12 0.13 0.15 0.18 0.22 0.24 0.29 0.28 0.25 0.26 0.26 0.27 0.29 0.34 0.38 0.39 0.37 0.37 0.36
0.05 0.05 0.06 0.06 0.06 0.06 0.07 0.09 0.09 0.09 0.10 0.11 0.11 0.14 0.17 0.16 0.15 0.16 0.16 0.14 0.12 0.11 0.12 0.13 0.14 0.14 0.14 0.14 0.16 0.19 0.23 0.28 0.31 0.31 0.29 0.30 0.31 0.27 0.28 0.32 0.36 0.37 0.38 0.37
0.08 0.06 0.05 0.05 0.05 0.06 0.07 0.09 0.11 0.12 0.12 0.12 0.12 0.15 0.17 0.17 0.17 0.18 0.19 0.17 0.14 0.13 0.12 0.13 0.14 0.15 0.17 0.16 0.17 0.18 0.21 0.28 0.32 0.34 0.33 0.32 0.33 0.31 0.29 0.28 0.29 0.31 0.34 0.37
0.14 0.11 0.09 0.09 0.08 0.07 0.07 0.08 0.11 0.14 0.14 0.14 0.15 0.15 0.16 0.16 0.16 0.16 0.18 0.17 0.16 0.14 0.14 0.14 0.15 0.17 0.18 0.18 0.17 0.17 0.19 0.24 0.31 0.35 0.33 0.31 0.31 0.32 0.32 0.31 0.30 0.31 0.33 0.38
0.14 0.14 0.12 0.12 0.10 0.08 0.07 0.07 0.08 0.12 0.14 0.14 0.13 0.13 0.14 0.16 0.16 0.16 0.17 0.17 0.17 0.15 0.14 0.14 0.15 0.16 0.17 0.17 0.16 0.18 0.20 0.23 0.27 0.32 0.35 0.36 0.33 0.32 0.32 0.31 0.31 0.32 0.33 0.36
0.12 0.13 0.12 0.11 0.10 0.09 0.08 0.08 0.07 0.08 0.10 0.11 0.12 0.11 0.12 0.14 0.15 0.14 0.14 0.15 0.15 0.14 0.14 0.14 0.18 0.18 0.17 0.19 0.20 0.21 0.25 0.27 0.29 0.31 0.34 0.40 0.40 0.35 0.36 0.36 0.36 0.36 0.37 0.37
0.09 0.08 0.08 0.08 0.09 0.10 0.10 0.09 0.08 0.09 0.09 0.10 0.10 0.11 0.11 0.12 0.14 0.15 0.14 0.13 0.15 0.17 0.16 0.15 0.14 0.14 0.14 0.16 0.21 0.25 0.29 0.30 0.30 0.30 0.32 0.35 0.37 0.39 0.41 0.41 0.40 0.41 0.40 0.40
0.10 0.09 0.08 0.08 0.07 0.08 0.10 0.10 0.07 0.07 0.07 0.09 0.10 0.10 0.10 0.12 0.15 0.17 0.17 0.17 0.17 0.17 0.17 0.18 0.15 0.14 0.16 0.19 0.21 0.22 0.27 0.30 0.31 0.32 0.33 0.35 0.38 0.41 0.44 0.48 0.47 0.46 0.47 0.48
0.11 0.10 0.09 0.08 0.08 0.07 0.07 0.07 0.07 0.06 0.06 0.07 0.09 0.09 0.10 0.11 0.12 0.15 0.18 0.22 0.24 0.25 0.21 0.18 0.17 0.20 0.24 0.29 0.26 0.25 0.26 0.30 0.35 0.36 0.39 0.41 0.43 0.44 0.47 0.51 0.51 0.51 0.51 0.51
0.12 0.12 0.11 0.10 0.09 0.08 0.06 0.06 0.05 0.05 0.06 0.07 0.08 0.10 0.13 0.13 0.14 0.17 0.21 0.25 0.25 0.27 0.25 0.25 0.29 0.30 0.32 0.30 0.28 0.27 0.27 0.31 0.35 0.36 0.39 0.44 0.47 0.49 0.50 0.51 0.54 0.56 0.57 0.55
0.14 0.14 0.14 0.14 0.13 0.12 0.10 0.09 0.08 0.07 0.07 0.07 0.08 0.10 0.13 0.16 0.18 0.20 0.24 0.28 0.31 0.30 0.26 0.27 0.33 0.36 0.37 0.32 0.29 0.27 0.28 0.32 0.35 0.37 0.39 0.41 0.44 0.46 0.49 0.53 0.60 0.63 0.65 0.68
0.16 0.18 0.19 0.19 0.20 0.20 0.18 0.15 0.13 0.12 0.12 0.11 0.11 0.12 0.14 0.15 0.18 0.22 0.25 0.27 0.30 0.30 0.26 0.28 0.32 0.34 0.31 0.30 0.30 0.30 0.29 0.31 0.35 0.37 0.38 0.41 0.43 0.46 0.49 0.52 0.60 0.68 0.71 0.74
0.17 0.18 0.22 0.23 0.22 0.22 0.20 0.19 0.19 0.19 0.18 0.17 0.15 0.14 0.13 0.13 0.14 0.17 0.20 0.23 0.28 0.31 0.29 0.28 0.28 0.29 0.27 0.28 0.30 0.31 0.31 0.31 0.32 0.33 0.34 0.39 0.41 0.42 0.46 0.50 0.54 0.62 0.68 0.71
0.21 0.20 0.22 0.25 0.27 0.25 0.23 0.24 0.27 0.27 0.26 0.25 0.23 0.20 0.18 0.17 0.17 0.17 0.18 0.20 0.23 0.27 0.30 0.31 0.30 0.30 0.30 0.30 0.30 0.33 0.36 0.37 0.37 0.38 0.39 0.41 0.44 0.47 0.50 0.53 0.55 0.60 0.64 0.64